Location: Richmond
(37.5536°N, 77.4606°W)
Time: 07:06:24
(UTC-04:00)

ISS - Visible Passes

Search period start: 30 May 2017 00:00
Search period end: 09 June 2017 00:00
Orbit: 402 x 408 km, 51.6° (Epoch: 30 May)

Date Brightness Start Highest point End Pass type
(mag) Time Alt. Az. Time Alt. Az. Time Alt. Az.
31 May -0.4 00:57:07 10° NNW 00:57:35 12° NNW 00:57:35 12° NNW visible
01 Jun -0.7 00:05:32 10° N 00:07:01 13° NNE 00:07:01 13° NNE visible
01 Jun -0.6 23:14:37 10° N 23:14:52 10° NNE 23:15:08 10° NNE visible
02 Jun -0.4 00:49:01 10° NW 00:49:08 11° NW 00:49:08 11° NW visible
02 Jun -1.0 23:57:12 10° NNW 23:58:39 18° N 23:58:39 18° N visible
03 Jun -1.2 23:05:30 10° NNW 23:07:34 15° NNE 23:08:12 15° NE visible
04 Jun -0.9 22:14:04 10° N 22:15:09 11° NNE 22:16:13 10° NE visible
04 Jun -1.2 23:49:05 10° NW 23:50:26 21° NNW 23:50:26 21° NNW visible
05 Jun -2.1 22:57:11 10° NNW 23:00:02 27° NNE 23:00:02 27° NNE visible
06 Jun -1.4 22:05:24 10° NNW 22:07:43 18° NNE 22:09:40 12° ENE visible
06 Jun -1.2 23:41:13 10° NW 23:42:18 19° WNW 23:42:18 19° WNW visible
07 Jun -1.1 21:13:47 10° N 21:15:17 12° NNE 21:16:47 10° NE visible
07 Jun -3.3 22:49:04 10° NW 22:51:58 56° N 22:51:58 56° N visible
08 Jun -2.5 21:57:04 10° NNW 22:00:05 32° NNE 22:01:40 21° E visible
08 Jun -1.0 23:33:47 10° WNW 23:34:19 13° W 23:34:19 13° W visible
